Date String (YYYY-MM-DD hh:mm:ss) UTC,Instrument flags,absolute air pressure of the measurement (hPa),sample flow rate (lpm),inlet stack bypass flow (lpm),air temperature of the measurement (°C),ambient temperature measured by the external sensor (°C),aerosol sample conditioner tube jacket temperature (°C),OPC LED temperature (°C),internal box temperature (°C),relative humidity of the measurement (%),span deviation,mass concentration of particles derived from Lorenz-Mie calculation of OPC scattering (μg/m³),mass concentration of particles derived from Lorenz-Mie calculation of OPC scattering (μg/m³),mass concentration of particles derived from Lorenz-Mie calculation of OPC scattering (μg/m³)
DateTimeUTC,F1_M11,P_M11,Q1_M11,Q2_M11,T1_M11,T2_M11,T3_M11,T4_M11,T5_M11,U1_M11,ZSPAN_M11,X0_M11,X2_M11,X1_M11
2024-05-11 14:00:00,SystemResetWarning,0830.2,5.00,000.00,024.6,024.0,000.0,032.9,026.3,019.7,0000.0,0003.72,0002.80,0002.47
2024-05-11 14:01:00,SystemResetWarning,0830.2,5.01,000.00,024.6,024.0,000.0,032.9,026.3,020.2,0000.0,0003.66,0002.78,0002.47
2024-05-11 14:02:00,SystemResetWarning,0830.2,4.99,000.00,024.6,024.0,000.0,032.9,026.3,021.1,0000.0,0003.59,0002.75,0002.47
2024-05-11 14:03:00,SystemResetWarning,0830.3,4.99,000.00,024.6,024.1,000.0,032.9,026.4,021.2,0000.0,0003.50,0002.73,0002.49
2024-05-11 14:04:00,SystemResetWarning,0830.2,5.00,000.00,024.6,024.1,000.0,032.9,026.4,020.3,0000.0,0003.48,0002.72,0002.49
2024-05-11 14:05:00,SystemResetWarning,0830.2,5.01,000.00,024.7,024.1,000.0,032.9,026.4,020.7,0000.0,0003.44,0002.71,0002.49
2024-05-11 14:06:00,SystemResetWarning,0830.2,5.01,000.00,024.7,024.1,000.0,032.9,026.4,021.3,0000.0,0003.40,0002.71,0002.49
2024-05-11 14:07:00,SystemResetWarning,0830.2,5.00,000.00,024.7,024.1,000.0,032.9,026.4,021.5,0000.0,0004.31,0002.71,0002.49
2024-05-11 14:08:00,SystemResetWarning,0830.2,5.00,000.00,024.7,024.1,000.0,032.9,026.4,021.7,0000.0,0004.85,0002.72,0002.50
2024-05-11 14:09:00,SystemResetWarning,0830.2,4.99,000.00,024.7,024.1,000.0,032.9,026.4,022.0,0000.0,0004.81,0002.72,0002.50
2024-05-11 14:10:00,SystemResetWarning,0830.2,5.00,000.00,024.7,024.1,000.0,032.9,026.4,022.1,0000.0,0004.77,0002.71,0002.51
2024-05-11 14:11:00,SystemResetWarning,0830.2,5.01,000.00,024.7,024.1,000.0,032.9,026.4,022.5,0000.0,0004.83,0002.73,0002.53
2024-05-11 14:12:00,SystemResetWarning,0830.2,5.00,000.00,024.7,024.1,000.0,033.0,026.5,022.5,0000.0,0005.38,0002.78,0002.54
2024-05-11 14:13:00,SystemResetWarning,0830.2,4.99,000.00,024.7,024.1,000.0,033.0,026.5,022.0,0000.0,0006.00,0002.83,0002.56
2024-05-11 14:14:00,SystemResetWarning,0830.2,4.99,000.00,024.7,024.1,000.0,033.0,026.5,021.9,0000.0,0007.00,0002.86,0002.57
2024-05-11 14:15:00,SystemResetWarning,0830.2,5.00,000.00,024.7,024.1,000.0,033.0,026.5,022.1,0000.0,0007.58,0002.87,0002.56
2024-05-11 14:16:00,SystemResetWarning,0830.2,5.00,000.00,024.7,024.1,000.0,033.0,026.5,021.4,0000.0,0007.61,0002.89,0002.56
2024-05-11 14:17:00,SystemResetWarning,0830.2,5.00,000.00,024.7,024.1,000.0,033.1,026.6,021.7,0000.0,0007.69,0002.90,0002.56
2024-05-11 14:18:00,SystemResetWarning,0830.1,5.00,000.00,024.8,024.1,000.0,033.1,026.6,022.2,0000.0,0007.40,0002.90,0002.55
2024-05-11 14:19:00,SystemResetWarning,0830.1,5.00,000.00,024.8,024.1,000.0,033.1,026.6,022.3,0000.0,0007.03,0002.90,0002.54
2024-05-11 14:20:00,SystemResetWarning,0830.1,5.00,000.00,024.8,024.1,000.0,033.1,026.6,022.0,0000.0,0007.30,0002.94,0002.54
2024-05-11 14:21:00,SystemResetWarning,0830.1,5.00,000.00,024.8,024.1,000.0,033.1,026.5,022.0,0000.0,0007.33,0002.97,0002.55
2024-05-11 14:22:00,SystemResetWarning,0830.1,4.99,000.00,024.8,024.1,000.0,033.1,026.5,022.1,0000.0,0007.35,0002.97,0002.54
2024-05-11 14:23:00,SystemResetWarning,0830.1,5.00,000.00,024.8,024.1,000.0,033.1,026.5,021.9,0000.0,0007.11,0002.97,0002.55
2024-05-11 14:24:00,SystemResetWarning,0830.1,5.00,000.00,024.8,024.1,000.0,033.1,026.6,022.3,0000.0,0006.43,0002.94,0002.53
2024-05-11 14:25:00,SystemResetWarning,0830.1,5.01,000.00,024.8,024.1,000.0,033.1,026.6,021.8,0000.0,0005.72,0002.93,0002.52
2024-05-11 14:26:00,SystemResetWarning,0830.1,5.01,000.00,024.8,024.1,000.0,033.2,026.6,021.1,0000.0,0004.72,0002.92,0002.53
2024-05-11 14:27:00,SystemResetWarning,0830.1,5.01,000.00,024.8,024.2,000.0,033.2,026.6,021.2,0000.0,0004.89,0002.96,0002.55
2024-05-11 14:28:00,SystemResetWarning,0830.1,5.00,000.00,024.8,024.2,000.0,033.2,026.6,021.0,0000.0,0005.64,0002.98,0002.57
2024-05-11 14:29:00,SystemResetWarning,0830.1,5.00,000.00,024.8,024.2,000.0,033.2,026.7,020.9,0000.0,0005.85,0003.02,0002.61
2024-05-11 14:30:00,SystemResetWarning,0830.1,5.00,000.00,024.8,024.2,000.0,033.2,026.7,020.7,0000.0,0005.54,0003.01,0002.63
2024-05-11 14:31:00,SystemResetWarning,0830.1,5.01,000.00,024.8,024.2,000.0,033.2,026.7,021.7,0000.0,0005.26,0002.99,0002.65
2024-05-11 14:32:00,SystemResetWarning,0830.2,5.00,000.00,024.8,024.2,000.0,033.2,026.7,021.7,0000.0,0005.40,0003.05,0002.67
2024-05-11 14:33:00,SystemResetWarning,0830.2,4.99,000.00,024.8,024.2,000.0,033.2,026.7,021.5,0000.0,0005.49,0003.09,0002.72
2024-05-11 14:34:00,SystemResetWarning,0830.1,5.00,000.00,024.8,024.2,000.0,033.3,026.7,021.2,0000.0,0005.51,0003.13,0002.76
2024-05-11 14:35:00,SystemResetWarning,0830.1,5.00,000.00,024.8,024.2,000.0,033.3,026.7,022.0,0000.0,0005.67,0003.16,0002.80
2024-05-11 14:36:00,SystemResetWarning,0830.1,5.00,000.00,024.8,024.2,000.0,033.3,026.6,022.1,0000.0,0005.98,0003.21,0002.84
2024-05-11 14:37:00,SystemResetWarning,0830.1,5.00,000.00,024.9,024.2,000.0,033.3,026.7,022.0,0000.0,0006.11,0003.25,0002.87
2024-05-11 14:38:00,SystemResetWarning,0830.1,5.00,000.00,024.9,024.2,000.0,033.3,026.7,021.6,0000.0,0006.06,0003.25,0002.89
2024-05-11 14:39:00,SystemResetWarning,0830.0,5.00,000.00,024.9,024.2,000.0,033.3,026.7,021.8,0000.0,0005.44,0003.27,0002.91
2024-05-11 14:40:00,SystemResetWarning,0830.0,5.00,000.00,024.9,024.2,000.0,033.3,026.7,021.9,0000.0,0005.08,0003.28,0002.93
2024-05-11 14:41:00,SystemResetWarning,0830.0,5.01,000.00,024.9,024.2,000.0,033.3,026.7,022.0,0000.0,0005.98,0003.29,0002.94
2024-05-11 14:42:00,SystemResetWarning,0830.0,5.00,000.00,024.9,024.2,000.0,033.3,026.6,021.9,0000.0,0006.55,0003.32,0002.97
2024-05-11 14:43:00,SystemResetWarning,0830.0,5.00,000.00,024.9,024.2,000.0,033.3,026.6,021.5,0000.0,0006.55,0003.31,0002.98
2024-05-11 14:44:00,SystemResetWarning,0830.0,5.00,000.00,024.9,024.2,000.0,033.3,026.7,021.3,0000.0,0006.96,0003.32,0002.98
2024-05-11 14:45:00,SystemResetWarning,0830.1,5.00,000.00,024.9,024.2,000.0,033.3,026.7,021.3,0000.0,0007.21,0003.31,0002.99
2024-05-11 14:46:00,SystemResetWarning,0830.1,5.00,000.00,024.9,024.2,000.0,033.3,026.7,021.2,0000.0,0007.08,0003.29,0003.00
2024-05-11 14:47:00,SystemResetWarning,0830.1,4.99,000.00,024.9,024.2,000.0,033.3,026.7,021.6,0000.0,0006.81,0003.28,0003.01
2024-05-11 14:48:00,SystemResetWarning,0830.1,5.00,000.00,024.9,024.2,000.0,033.3,026.7,021.8,0000.0,0007.37,0003.27,0003.03
2024-05-11 14:49:00,SystemResetWarning,0830.1,5.00,000.00,024.9,024.2,000.0,033.3,026.7,022.4,0000.0,0007.74,0003.29,0003.07
2024-05-11 14:50:00,SystemResetWarning,0830.1,5.00,000.00,024.9,024.2,000.0,033.3,026.7,022.3,0000.0,0007.71,0003.31,0003.10
2024-05-11 14:51:00,SystemResetWarning,0830.1,5.00,000.00,024.9,024.3,000.0,033.4,026.7,022.3,0000.0,0007.73,0003.32,0003.11
2024-05-11 14:52:00,SystemResetWarning,0830.1,5.00,000.00,024.9,024.3,000.0,033.4,026.8,022.0,0000.0,0007.44,0003.38,0003.14
2024-05-11 14:53:00,SystemResetWarning,0830.1,5.00,000.00,024.9,024.3,000.0,033.4,026.8,021.6,0000.0,0007.18,0003.43,0003.17
2024-05-11 14:54:00,SystemResetWarning,0830.1,5.00,000.00,025.0,024.3,000.0,033.4,026.8,021.9,0000.0,0007.14,0003.46,0003.20
2024-05-11 14:55:00,SystemResetWarning,0830.1,5.00,000.00,025.0,024.3,000.0,033.4,026.8,022.4,0000.0,0006.78,0003.50,0003.24
2024-05-11 14:56:00,SystemResetWarning,0830.1,5.00,000.00,025.0,024.3,000.0,033.4,026.8,022.4,0000.0,0006.62,0003.55,0003.29
2024-05-11 14:57:00,SystemResetWarning,0830.1,5.00,000.00,025.0,024.3,000.0,033.4,026.8,022.2,0000.0,0006.70,0003.62,0003.35
2024-05-11 14:58:00,SystemResetWarning,0830.1,4.99,000.00,025.0,024.3,000.0,033.4,026.8,022.3,0000.0,0006.78,0003.68,0003.40
2024-05-11 14:59:00,SystemResetWarning,0830.0,5.00,000.00,025.0,024.3,000.0,033.4,026.8,022.0,0000.0,0006.03,0003.73,0003.44
